Flag for Chile Weather past 2 weeks in Concepción, Chile

Now
54 °F

Broken clouds.


Feels Like: 51 °F
Forecast: 41 / 53 °F
Wind: 9 mph from North

Location: Concepcion Airport

Current Time: Jul 26, 2014 at 1:21:20 PM

Latest Report: Jul 26, 2014 at 1:00 PM


Visibility: N/A

Pressure: 30.15 "Hg

Humidity: 88%

Dew point: 50 °F

Location of ConcepciónLocation

Historic Weather in Concepción — Graph

°F

Concepción temperature yesterday

Maximum temperature yesterday: 52 °F (at 12:00 PM)
Minimum temperature yesterday: 45 °F (at 1:00 AM)
Average temperature yesterday: 49 °F

Past Weeks' High & Low Weather Summary

 TemperatureHumidityPressure
High63 °F (Jul 18, 3:00 PM)100% (Jul 16, 1:00 AM)30.51 "Hg (Jul 16, 1:00 AM)
Low32 °F (Jul 23, 8:00 AM)54% (Jul 24, 12:00 PM)29.74 "Hg (Jul 14, 5:00 AM)
Average50 °F87%30.14 "Hg
* Reported Jul 11 12:00 Noon — Jul 26 12:00 Noon, Concepción, Weather by CustomWeather, © 2014

Note: Actual official high and low records may vary slightly from our data, if they occured in-between our weather recording intervals... More about our weather records

Advertising

Concepción weather history for previous 24 hours

 ConditionsComfort  
Time TempWeatherWind HumidityBarometerVisibility
12:00 PM
Jul 26
54 °FBroken clouds.5 mph88%30.18 "HgN/A
11:00 AM52 °FBroken clouds.No wind94%30.18 "Hg4 mi
10:00 AM50 °FFog.No wind100%30.18 "Hg1 mi
9:00 AM48 °FFog.2 mph100%30.15 "Hg1 mi
8:00 AM46 °FFog.2 mph100%30.18 "Hg1 mi
7:00 AM46 °FFog.3 mph100%30.15 "Hg1 mi
6:00 AM46 °FFog.No wind100%30.15 "Hg1 mi
5:00 AM48 °FFog.No wind100%30.18 "Hg1 mi
4:00 AM50 °FPassing clouds.3 mph100%30.18 "HgN/A
3:00 AM50 °FPartly cloudy.No wind100%30.18 "HgN/A
2:00 AM50 °FPartly cloudy.No wind100%30.21 "HgN/A
1:00 AM52 °FPartly cloudy.5 mph94%30.21 "HgN/A
12:00 AM52 °FPassing clouds.3 mph94%30.21 "HgN/A
11:00 PM
Jul 25
50 °FFog.No wind100%30.21 "Hg2 mi
10:00 PM50 °FFog.2 mph100%30.21 "Hg1 mi
9:00 PM52 °FFog.No wind94%30.18 "Hg3 mi
8:00 PM52 °FFog.No wind94%30.18 "Hg3 mi
7:00 PM52 °FMostly cloudy.No wind100%30.21 "HgN/A
6:00 PM52 °FFog.3 mph100%30.18 "Hg4 mi
5:00 PM52 °FDrizzle. Low clouds.3 mph100%30.18 "Hg1 mi
4:00 PM52 °FDrizzle. Partly sunny.8 mph100%30.18 "Hg1 mi
3:00 PM52 °FFog.10 mph100%30.18 "Hg2 mi
2:00 PM52 °FFog.12 mph94%30.18 "Hg1 mi
1:00 PM52 °FFog.12 mph100%30.18 "Hg3 mi
Weather by CustomWeather, © 2014

See weather overviewHow to use our weather pages